Location: Newark
(35.2672°N, 80.7344°W)
Time: 06:40:03
(UTC+00:00)

Vanguard 2 Rocket - Pass Details

Date: 24 January 2020
Orbit: 553 x 3327 km, 32.9° (Epoch: 27 February)

Event Time Altitude Azimuth Distance (km) Brightness Sun altitude
Rises 14:51:25 0° 277° (W) 3,758 9.6 23.1°
Reaches altitude 10° 14:53:38 10° 272° (W) 3,056 9.3 23.4°
Maximum altitude 15:01:11 54° 197° (SSW) 1,967 9.3 24.4°
Drops below altitude 10° 15:14:31 10° 126° (SE) 5,229 12.3 26.1°
Sets 15:19:37 0° 122° (ESE) 6,625 12.4 26.8°
